Flag for Cyprus Weather past 2 weeks in Limassol, Cyprus

Now
61 °F

Passing clouds.


Feels Like: 61 °F
Forecast: 60 / 76 °F
Wind: 2 mph from Northwest

Location: Akrotiri

Current Time: May 30, 2015 at 5:36:13 AM

Latest Report: May 30, 2015 at 4:50 AM


Visibility: N/A

Pressure: 29.80 "Hg

Humidity: 88%

Dew point: 57 °F

Location of LimassolLocation

Historic Weather in Limassol — Graph

°F

Limassol temperature yesterday

Maximum temperature yesterday: 75 °F (at 11:50 AM)
Minimum temperature yesterday: 68 °F (at 12:50 AM)
Average temperature yesterday: 71 °F

Past Weeks' High & Low Weather Summary

 TemperatureHumidityPressure
High91 °F (May 18, 11:50 AM)100% (May 27, 1:50 AM)30.21 "Hg (May 27, 1:50 AM)
Low57 °F (May 16, 3:50 AM)25% (May 18, 8:50 AM)29.65 "Hg (May 27, 6:50 PM)
Average73 °F68%29.87 "Hg
* Reported May 15 3:50 AM — May 30 3:50 AM, Limassol, Weather by CustomWeather, © 2015

Note: Actual official high and low records may vary slightly from our data, if they occured in-between our weather recording intervals... More about our weather records

Advertising

Limassol weather history for previous 24 hours

 ConditionsComfort  
Time TempWeatherWind HumidityBarometerVisibility
3:50 AM
Sat, May 30
61 °FPassing clouds.2 mph83%29.80 "HgN/A
2:50 AM61 °FPassing clouds.6 mph88%29.83 "HgN/A
1:50 AM61 °FPassing clouds.10 mph88%29.83 "HgN/A
12:50 AM66 °FPassing clouds.3 mph88%29.80 "HgN/A
11:50 PM
Fri, May 29
68 °FPassing clouds.3 mph83%29.83 "HgN/A
10:50 PM68 °FPassing clouds.6 mph83%29.83 "HgN/A
9:50 PM68 °FPassing clouds.9 mph83%29.80 "HgN/A
8:50 PM68 °FPassing clouds.8 mph83%29.80 "HgN/A
7:50 PM70 °FPassing clouds.10 mph73%29.80 "HgN/A
6:50 PM72 °FPassing clouds.14 mph69%29.77 "HgN/A
5:50 PM73 °FPassing clouds.15 mph65%29.77 "HgN/A
4:50 PM73 °FPassing clouds.18 mph65%29.77 "HgN/A
3:50 PM75 °FPassing clouds.16 mph65%29.77 "HgN/A
2:50 PM73 °FPassing clouds.15 mph65%29.77 "HgN/A
1:50 PM75 °FPassing clouds.16 mph61%29.77 "HgN/A
12:50 PM73 °FPassing clouds.16 mph69%29.77 "HgN/A
11:50 AM75 °FPassing clouds.17 mph65%29.77 "HgN/A
10:50 AM73 °FPassing clouds.16 mph69%29.77 "HgN/A
9:50 AM73 °FPassing clouds.16 mph69%29.77 "HgN/A
8:50 AM72 °FPassing clouds.15 mph73%29.74 "HgN/A
7:50 AM70 °FPassing clouds.13 mph83%29.74 "HgN/A
6:50 AM68 °FPassing clouds.10 mph88%29.74 "HgN/A
5:50 AM68 °FPassing clouds.8 mph88%29.71 "HgN/A
Weather by CustomWeather, © 2015

See weather overviewHow to use our weather pages